Location: *
(28.3744°N, 81.5492°W)
Time: 04:03:43
(UTC+00:00)

Cosmos 1745 Rocket - Pass Details

Date: 15 June 2025
Orbit: 952 x 996 km, 83.0° (Epoch: 11 July)

Event Time Altitude Azimuth Distance (km) Brightness Sun altitude
Rises 09:58:15 0° 181° (S) 3,626 6.7 -6.7°
Reaches altitude 10° 10:00:44 10° 180° (S) 2,687 6.0 -6.2°
Maximum altitude 10:06:53 82° 94° (E) 983 4.2 -5.0°
Drops below altitude 10° 10:13:08 10° 8° (N) 2,730 6.9 -3.8°
Sets 10:15:40 0° 7° (N) 3,687 7.6 -3.4°
